User: anonymous   Login
Location: Unspecified
(0.0000°N, 0.0000°E)
Time: 08:56:48
(UTC+00:00)
Language:

Tiangong 2 - Orbit

View from above orbital plane
View from above orbital plane
View from above satellite
View from above satellite

Ground track
Ground track

The orbit data is extracted from the following two-line orbital elements,

1 41765U 16057A   17204.83700208 +.00003352 +00000-0 +48066-4 0  9995
2 41765 042.7828 137.1242 0001801 167.4176 288.2697 15.58135010048708
Epoch (UTC): 23 July 2017 20:05:16
Eccentricity: 0.0001801
inclination: 42.7828°
perigee height: 392 km
apogee height: 394 km
right ascension of ascending node: 137.1242°
argument of perigee: 167.4176°
revolutions per day: 15.58135010
mean anomaly at epoch: 288.2697°
orbit number at epoch: 4870

The dashed part of the orbit path shows where the satellite is in the earth's shadow,  

DLR